Weather Roundup
Issued by NWS Chicago, IL

Home | Current Version | Previous Version | Text Only | Print | Product List | Glossary Off
Versions: 1 2 3 4 5 6 7 8 9 10 11 12 13 14 15 16 17 18 19 20 21 22 23 24 25 26 27 28 29 30 31 32 33 34 35 36 37 38 39 40 41 42 43 44 45 46 47 48 49 50

000
NZUS59 KLOT 210206
HRRLOT

CHICAGO AREA WEATHER ROUNDUP
NATIONAL WEATHER SERVICE CHICAGO/ROMEOVILLE IL
900 PM CDT SAT SEP 20 2014

NOTE: "FAIR" INDICATES FEW OR NO CLOUDS BELOW 12,000 FEET WITH NO
SIGNIFICANT WEATHER AND/OR OBSTRUCTIONS TO VISIBILITY.

* THESE STATIONS ARE NOT UNDER NWS QUALITY CONTROL. THEY ALSO MAY NOT
  REPORT WEATHER SUCH AS PRECIPITATION OR FOG.

ILZ005-006-012>014-019>023-210300-
NORTHEAST ILLINOIS

CITY           SKY/WX    TMP DP  RH WIND       PRES   REMARKS
OHARE          PTCLDY    69  62  78 SW5       29.79F
MIDWAY         PTCLDY    71  66  84 SW9       29.80S
AURORA         CLEAR     68  65  90 S5        29.81S FOG
LANSING*       PTCLDY    65  63  94 S6        29.81F
JOLIET*          N/A     65  63  94 S3        29.81F FOG
WAUKEGAN       CLEAR     66  61  84 SW9       29.77S
DUPAGE AIRPORT CLEAR     68  64  87 SW8       29.80S
WHEELING       PTCLDY    68  63  84 S5        29.80F
KANKAKEE*      MOCLDY    70  67  92 S7        29.83F
MORRIS*        CLEAR     68  68 100 SW3       29.80F FOG
LEWIS AIRPORT* CLEAR     67  66  96 S6        29.81F FOG
NORTHERLY IS     N/A     71  63  75 SW2         N/A
$$

WIZ051-052-058>065-066-070>072-210300-
SOUTHEAST WISCONSIN

CITY           SKY/WX    TMP DP  RH WIND       PRES   REMARKS
MILWAUKEE      TSTM      68  63  84 W14G30    29.75S
KENOSHA*       PTCLDY    67  63  87 SW9       29.77F
RACINE*        PTCLDY    67  62  84 SW8       29.77F
BURLINGTON     CLEAR     62  61  96 SW6       29.76F
WAUKESHA       CLEAR     66  61  82 SW5       29.76S
WEST BEND      CLEAR     64  57  77 SW6       29.73F
$$

INZ001>003-010>013-019-020-210300-
NORTHWEST INDIANA

CITY           SKY/WX    TMP DP  RH WIND       PRES   REMARKS
GARY*          MOCLDY    72  66  83 S3        29.82S
MICHIGAN CITY* NOT AVBL
RENSSELAER*    NOT AVBL
VALPARAISO     MOCLDY    68  66  93 S8        29.83F
$$

LMZ740>746-210300-
SOUTHERN LAKE MICHIGAN

STATION/POSITION TIME  SKY/WX   TEMP WIND        PRES    VSBY
                                AIR  DIR/SP/G
                 (UTC)          (F)  (DEG/KT/KT) (MB)    (MI)
HARRISON CRIB    0200            72  220/ 13/ 17   N/A
BURNHAM HARBOR   0200            71  210/  3/  5   N/A
CALUMET HARBOR   0200            71  200/  6/  8 1008.1F
BURNS HARBOR     NOT AVBL
MICHIGAN CITY    0200            69  170/ 11/ 15   N/A
$$

ABBREVIATIONS USED IN REMARKS
   TC - TEMPERATURE IN CELSIUS
  WCI - WIND CHILL INDEX
   HX - HEAT INDEX
  VSB - VISIBILITY
$$



USA.gov is the U.S. government's official web portal to all federal, state and local government web resources and services.